Weather reports worldwide

Advertisment
Treviso/Istrana, Italy (16098): temperature & dewpoint: 01.08.2020 02:00:00 - 07.08.2020 02:00:00 (CEST)Treviso/Istrana, Italy (16098): wind speed: 01.08.2020 02:00:00 - 07.08.2020 02:00:00 (CEST)Treviso/Istrana, Italy (16098): wind direction: 01.08.2020 02:00:00 - 07.08.2020 02:00:00 (CEST)Treviso/Istrana, Italy (16098): reduced air pressure: 01.08.2020 02:00:00 - 07.08.2020 02:00:00 (CEST)Treviso/Istrana, Italy (16098): visibility: 01.08.2020 02:00:00 - 07.08.2020 02:00:00 (CEST)
Date & Time tt [°C] td [°C] ff [km/h] ff [kn] dd ppp [hPa] vv [km]
07.08.2020 02:00:00 22,8 22,1 0 0 N 1018,3 20
07.08.2020 01:00:00 22,8 22,1 0 0 N 1018,1 20
07.08.2020 00:00:00 23,4 22,9 0 0 N 1018,2 20
06.08.2020 23:00:00 24,4 23,0 0 0 N 1017,8 20
06.08.2020 22:00:00 25,0 22,9 0 0 N 1017,4 15
06.08.2020 21:00:00 27,4 23,9 0 0 N 1016,5 20
06.08.2020 20:00:00 28,0 20,8 8 4 SSW 1016,0 20
06.08.2020 19:00:00 29,6 21,0 9 5 SSW 1015,9 25
06.08.2020 18:00:00 29,8 20,4 9 5 WSW 1015,2 25
06.08.2020 17:00:00 29,6 20,5 8 4 WSW 1015,5 25
06.08.2020 16:00:00 29,4 20,3 8 4 S 1015,4 25
06.08.2020 15:00:00 30,0 20,3 5 3 SE 1015,8 30
06.08.2020 14:00:00 29,6 21,0 9 5 SSW 1016,1 30
06.08.2020 13:00:00 27,8 18,8 8 4 SE 1016,0 30
06.08.2020 12:00:00 27,0 18,0 2 1 W 1015,9 30
06.08.2020 11:00:00 26,0 19,6 9 5 ESE 1015,8 30
06.08.2020 10:00:00 25,2 18,9 11 6 ENE 1015,8 30
06.08.2020 09:00:00 23,0 19,4 9 5 E 1015,7 30
06.08.2020 08:00:00 22,0 19,2 4 2 N 1015,1 30
06.08.2020 07:00:00 21,0 18,6 8 4 N 1014,8 30
06.08.2020 06:00:00 25,0 23,2 8 4 NNW 1015,0 30
06.08.2020 05:00:00 25,0 23,2 5 3 NNW 1015,0 30
06.08.2020 04:00:00 25,0 23,2 0 0 N 1014,7 30
06.08.2020 03:00:00 25,4 23,7 8 4 NNW 1015,0 30
06.08.2020 02:00:00 25,4 23,7 5 3 NNW 1014,7 30
06.08.2020 01:00:00 - - - - - - -
06.08.2020 00:00:00 26,0 24,2 8 4 NW 1013,9 30
05.08.2020 23:00:00 23,4 21,3 4 2 NW 1013,7 30
05.08.2020 22:00:00 23,6 20,7 0 0 N 1013,0 30
05.08.2020 21:00:00 24,0 19,9 5 3 SSW 1013,0 30
05.08.2020 20:00:00 25,0 19,2 9 5 SSE 1013,0 30
05.08.2020 19:00:00 26,0 18,7 5 3 ESE 1013,0 30
05.08.2020 18:00:00 26,4 18,0 11 6 SSE 1013,0 30
05.08.2020 17:00:00 27,8 18,5 11 6 NNE 1012,9 30
05.08.2020 16:00:00 27,0 17,2 11 6 E 1013,0 30
05.08.2020 15:00:00 27,0 16,3 11 6 E 1013,0 30
05.08.2020 14:00:00 26,4 16,1 9 5 SE 1012,7 30
05.08.2020 13:00:00 26,2 15,6 16 9 E 1013,1 30
05.08.2020 12:00:00 25,8 16,7 8 4 NNW 1013,2 30
05.08.2020 11:00:00 25,0 16,7 5 3 ESE 1013,2 30
05.08.2020 10:00:00 23,2 16,7 9 5 N 1013,2 30
05.08.2020 09:00:00 22,0 19,2 8 4 N 1012,8 30
05.08.2020 08:00:00 20,0 17,8 8 4 NE 1012,2 35
05.08.2020 07:00:00 20,0 16,7 9 5 N 1011,6 35
05.08.2020 06:00:00 20,0 16,4 9 5 N 1010,9 35
05.08.2020 05:00:00 20,0 18,5 9 5 N 1010,7 35
05.08.2020 04:00:00 20,0 18,5 0 0 N 1010,0 35
05.08.2020 03:00:00 20,0 18,5 0 0 N 1009,8 35
05.08.2020 02:00:00 20,0 18,7 5 3 NW 1009,6 30
05.08.2020 01:00:00 20,0 18,7 5 3 NW 1009,4 30
05.08.2020 00:00:00 19,6 18,6 5 3 WNW 1009,5 30
04.08.2020 23:00:00 19,8 18,8 5 3 NW 1009,2 15
04.08.2020 22:00:00 20,0 19,2 8 4 E 1009,1 35
04.08.2020 21:00:00 21,8 18,8 22 12 SE 1007,8 30
04.08.2020 20:00:00 23,6 19,3 8 4 NNW 1006,6 35
04.08.2020 19:00:00 24,2 18,6 8 4 W 1006,5 35
04.08.2020 18:00:00 23,2 19,0 11 6 NW 1006,1 30
04.08.2020 17:00:00 20,8 18,7 11 6 NW 1007,0 15
04.08.2020 16:00:00 19,8 18,8 8 4 NNE 1007,4 12
04.08.2020 15:00:00 19,6 17,7 8 4 N 1006,6 15
04.08.2020 14:00:00 19,2 17,7 16 9 N 1006,2 10
04.08.2020 13:00:00 20,8 20,0 15 8 NNW 1005,3 12
04.08.2020 12:00:00 20,8 20,0 11 6 NW 1005,3 4,0
04.08.2020 11:00:00 23,8 22,1 9 5 SE 1004,6 10
04.08.2020 10:00:00 22,2 20,3 11 6 E 1004,0 10
04.08.2020 09:00:00 20,8 19,3 15 8 E 1003,7 6
04.08.2020 08:00:00 21,4 20,0 8 4 ENE 1002,9 10
04.08.2020 07:00:00 21,0 19,3 0 0 N 1002,6 10
04.08.2020 06:00:00 20,0 18,3 0 0 N 1002,6 9
04.08.2020 05:00:00 20,0 18,3 0 0 N 1002,6 8
04.08.2020 04:00:00 21,0 19,8 0 0 N 1002,4 7
04.08.2020 03:00:00 22,0 20,3 4 2 SSW 1002,6 4,0
04.08.2020 02:00:00 22,4 20,7 0 0 N 1003,2 4,0
04.08.2020 01:00:00 22,6 21,4 9 5 NNE 1003,2 3,5
04.08.2020 00:00:00 23,0 22,2 9 5 N 1002,8 3,5
03.08.2020 23:00:00 23,4 22,2 0 0 N 1003,4 7
03.08.2020 22:00:00 23,0 21,8 0 0 N 1002,8 10
03.08.2020 21:00:00 23,0 21,8 0 0 N 1003,1 15
03.08.2020 20:00:00 23,0 21,3 4 2 SSW 1003,1 25
03.08.2020 19:00:00 23,0 21,3 5 3 N 1002,8 20
03.08.2020 18:00:00 23,0 21,6 8 4 NNW 1004,3 2,8
03.08.2020 17:00:00 25,0 24,1 11 6 NNW 1004,0 7
03.08.2020 16:00:00 26,0 24,6 9 5 W 1004,6 10
03.08.2020 15:00:00 26,6 24,4 8 4 NNE 1005,2 10
03.08.2020 14:00:00 28,0 22,9 5 3 ENE 1006,2 15
03.08.2020 13:00:00 28,0 22,7 5 3 NNE 1006,5 20
03.08.2020 12:00:00 28,0 22,0 5 3 NE 1007,5 35
03.08.2020 11:00:00 28,0 22,7 5 3 NNE 1007,6 40
03.08.2020 10:00:00 25,6 23,1 11 6 ENE 1007,4 30
03.08.2020 09:00:00 24,0 22,8 11 6 ENE 1007,8 20
03.08.2020 08:00:00 23,8 22,2 8 4 ENE 1008,3 15
03.08.2020 07:00:00 23,2 21,8 8 4 NNE 1007,3 12
03.08.2020 06:00:00 23,6 22,4 4 2 N 1008,3 15
03.08.2020 05:00:00 24,0 23,0 5 3 ESE 1007,7 15
03.08.2020 04:00:00 23,8 23,0 0 0 N 1008,2 10
03.08.2020 03:00:00 24,8 24,3 5 3 S 1008,6 8
03.08.2020 02:00:00 25,2 24,9 8 4 SW 1008,6 12
03.08.2020 01:00:00 26,2 25,3 9 5 ENE 1008,3 15
03.08.2020 00:00:00 26,2 24,4 5 3 NNE 1009,1 15
02.08.2020 23:00:00 25,8 23,7 11 6 NE 1009,2 20
02.08.2020 22:00:00 26,6 23,5 9 5 ENE 1009,8 20
02.08.2020 21:00:00 27,4 23,4 13 7 E 1009,5 20
02.08.2020 20:00:00 28,8 24,1 13 7 E 1009,7 15
02.08.2020 19:00:00 30,4 23,3 18 10 E 1009,7 12
02.08.2020 18:00:00 31,4 22,7 15 8 ENE 1009,9 15
02.08.2020 17:00:00 31,8 22,8 11 6 ENE 1010,1 18
02.08.2020 16:00:00 31,8 22,8 15 8 E 1010,8 20
02.08.2020 15:00:00 31,4 23,0 13 7 ENE 1011,0 25
02.08.2020 14:00:00 31,2 23,3 11 6 E 1011,7 25
02.08.2020 13:00:00 30,6 21,7 15 8 ENE 1011,6 25
02.08.2020 12:00:00 30,4 21,5 16 9 E 1011,7 25
02.08.2020 11:00:00 29,6 21,8 11 6 ENE 1011,6 25
02.08.2020 10:00:00 26,6 23,1 13 7 NNE 1011,6 25
02.08.2020 09:00:00 25,0 22,3 11 6 NNW 1012,6 25
02.08.2020 08:00:00 24,0 23,2 5 3 S 1011,3 15
02.08.2020 07:00:00 24,6 23,7 11 6 NE 1012,3 10
02.08.2020 06:00:00 25,0 24,1 15 8 NW 1012,3 10
02.08.2020 05:00:00 25,4 23,7 9 5 NW 1011,6 10
02.08.2020 04:00:00 25,0 23,2 11 6 SSE 1010,9 10
02.08.2020 03:00:00 24,6 23,7 8 4 W 1011,0 7
02.08.2020 02:00:00 24,6 24,1 13 7 WNW 1012,0 6
02.08.2020 01:00:00 24,6 24,3 13 7 N 1012,6 5
02.08.2020 00:00:00 25,0 25,0 21 11 NNW 1013,8 5
01.08.2020 23:00:00 30,0 27,8 13 7 NE 1010,5 8
01.08.2020 22:00:00 31,0 27,1 5 3 ESE 1009,3 10
01.08.2020 21:00:00 32,8 27,8 11 6 SSE 1009,2 10
01.08.2020 20:00:00 34,0 28,5 5 3 SSE 1009,4 11
01.08.2020 19:00:00 35,0 27,7 11 6 S 1009,6 10
01.08.2020 18:00:00 36,0 28,4 15 8 S 1010,4 10
01.08.2020 17:00:00 36,6 27,6 8 4 SSW 1010,4 10
01.08.2020 16:00:00 36,4 27,4 5 3 SSE 1011,4 10
01.08.2020 15:00:00 36,2 27,2 9 5 W 1012,4 10
01.08.2020 14:00:00 36,0 27,0 11 6 WSW 1012,4 10
01.08.2020 13:00:00 35,6 28,5 9 5 S 1013,2 10
01.08.2020 12:00:00 34,4 26,9 5 3 S 1013,4 10
01.08.2020 11:00:00 31,6 25,5 4 2 N 1013,3 10
01.08.2020 10:00:00 30,6 25,7 5 3 E 1013,3 10
01.08.2020 09:00:00 30,0 25,7 4 2 NE 1013,4 10
01.08.2020 08:00:00 29,0 26,2 0 0 N 1012,9 10
01.08.2020 07:00:00 27,0 24,8 0 0 N 1013,0 10
01.08.2020 06:00:00 27,0 24,8 0 0 N 1013,0 10
01.08.2020 05:00:00 27,0 24,7 8 4 N 1012,9 10
01.08.2020 04:00:00 27,2 24,5 4 2 NNW 1013,0 10
01.08.2020 03:00:00 27,4 25,2 8 4 WSW 1012,9 10
01.08.2020 02:00:00 28,4 25,6 8 4 ENE 1012,8 10

tt = temperature
td = dewpoint
ff = wind speed
dd = wind direction
ppp = reduced air pressure
vv = visibility

Next stations